Time,TemperatureF,DewpointF,PressureIn,WindDirection,WindDirectionDegrees,WindSpeedMPH,WindSpeedGustMPH,Humidity,HourlyPrecipIn,Conditions,Clouds,dailyrainin,SolarRadiationWatts/m^2,SoftwareType,DateUTC
2013-06-22 15:02:00,64.0,60.0,-100.00,North,349,5.0,12.0,86,0.00,,,0.12,247.000000,,2013-06-22 15:02:00,
2013-06-22 15:34:00,65.0,60.0,-100.00,NNE,12,4.0,7.0,85,0.00,,,0.12,206.000000,,2013-06-22 15:34:00,
2013-06-22 15:43:00,65.0,60.0,-100.00,NNE,12,4.0,7.0,85,0.00,,,0.12,206.000000,,2013-06-22 15:43:00,
2013-06-22 15:53:00,65.0,60.0,-100.00,NNE,12,4.0,7.0,85,0.00,,,0.12,206.000000,,2013-06-22 15:53:00,
2013-06-22 16:02:00,65.0,60.0,-100.00,NNE,12,4.0,7.0,85,0.00,,,0.12,206.000000,,2013-06-22 16:02:00,
2013-06-22 16:22:00,66.0,61.0,-100.00,NNE,30,3.0,6.0,84,0.00,,,0.06,154.000000,,2013-06-22 16:22:00,
2013-06-22 16:34:00,66.0,61.0,-100.00,NNE,30,3.0,6.0,84,0.00,,,0.06,154.000000,,2013-06-22 16:34:00,
2013-06-22 16:43:00,66.0,61.0,-100.00,NNE,30,3.0,6.0,84,0.00,,,0.06,154.000000,,2013-06-22 16:43:00,
2013-06-22 16:52:00,66.0,61.0,-100.00,NNE,30,3.0,6.0,84,0.00,,,0.06,154.000000,,2013-06-22 16:52:00,
2013-06-22 17:02:00,66.0,61.0,-100.00,NNE,30,3.0,6.0,84,0.00,,,0.06,154.000000,,2013-06-22 17:02:00,
2013-06-22 17:22:00,69.0,63.0,-100.00,ENE,57,9.0,14.0,80,0.00,,,0.03,332.000000,,2013-06-22 17:22:00,
2013-06-22 17:34:00,69.0,63.0,-100.00,ENE,57,9.0,14.0,80,0.00,,,0.03,332.000000,,2013-06-22 17:34:00,
2013-06-22 17:43:00,69.0,63.0,-100.00,ENE,57,9.0,14.0,80,0.00,,,0.03,332.000000,,2013-06-22 17:43:00,
2013-06-22 17:52:00,69.0,63.0,-100.00,ENE,57,9.0,14.0,80,0.00,,,0.03,332.000000,,2013-06-22 17:52:00,
2013-06-22 18:02:00,69.0,63.0,-100.00,ENE,57,9.0,14.0,80,0.00,,,0.03,332.000000,,2013-06-22 18:02:00,
2013-06-22 18:23:00,70.0,62.0,-100.00,SE,129,8.0,16.0,75,0.00,,,0.00,452.000000,,2013-06-22 18:23:00,
2013-06-22 18:34:00,70.0,62.0,-100.00,SE,129,8.0,16.0,75,0.00,,,0.00,452.000000,,2013-06-22 18:34:00,
2013-06-22 18:43:00,70.0,62.0,-100.00,SE,129,8.0,16.0,75,0.00,,,0.00,452.000000,,2013-06-22 18:43:00,
2013-06-22 18:52:00,70.0,62.0,-100.00,SE,129,8.0,16.0,75,0.00,,,0.00,452.000000,,2013-06-22 18:52:00,
2013-06-22 19:01:00,70.0,62.0,-100.00,SE,129,8.0,16.0,75,0.00,,,0.00,452.000000,,2013-06-22 19:01:00,
2013-06-22 19:22:00,69.0,60.0,-100.00,WSW,256,8.0,16.0,74,0.00,,,0.00,311.000000,,2013-06-22 19:22:00,
2013-06-22 19:33:00,69.0,60.0,-100.00,WSW,256,8.0,16.0,74,0.00,,,0.00,311.000000,,2013-06-22 19:33:00,
2013-06-22 19:43:00,69.0,60.0,-100.00,WSW,256,8.0,16.0,74,0.00,,,0.00,311.000000,,2013-06-22 19:43:00,
2013-06-22 19:53:00,69.0,60.0,-100.00,WSW,256,8.0,16.0,74,0.00,,,0.00,311.000000,,2013-06-22 19:53:00,
2013-06-22 20:02:00,69.0,60.0,-100.00,WSW,256,8.0,16.0,74,0.00,,,0.00,311.000000,,2013-06-22 20:02:00,
2013-06-22 20:22:00,66.0,60.0,-100.00,WSW,248,7.0,13.0,82,0.00,,,0.00,83.000000,,2013-06-22 20:22:00,
2013-06-22 20:34:00,66.0,60.0,-100.00,WSW,248,7.0,13.0,82,0.00,,,0.00,83.000000,,2013-06-22 20:34:00,
2013-06-22 20:43:00,66.0,60.0,-100.00,WSW,248,7.0,13.0,82,0.00,,,0.00,83.000000,,2013-06-22 20:43:00,
2013-06-22 20:53:00,66.0,60.0,-100.00,WSW,248,7.0,13.0,82,0.00,,,0.00,83.000000,,2013-06-22 20:53:00,
2013-06-22 21:01:00,66.0,60.0,-100.00,WSW,248,7.0,13.0,82,0.00,,,0.00,83.000000,,2013-06-22 21:01:00,
2013-06-22 21:22:00,64.0,60.0,-100.00,South,170,6.0,10.0,86,0.00,,,0.00,78.000000,,2013-06-22 21:22:00,
2013-06-22 21:34:00,64.0,60.0,-100.00,South,170,6.0,10.0,86,0.00,,,0.00,78.000000,,2013-06-22 21:34:00,
2013-06-22 21:43:00,64.0,60.0,-100.00,South,170,6.0,10.0,86,0.00,,,0.00,78.000000,,2013-06-22 21:43:00,
2013-06-22 21:53:00,64.0,60.0,-100.00,South,170,6.0,10.0,86,0.00,,,0.00,78.000000,,2013-06-22 21:53:00,
2013-06-22 22:02:00,64.0,60.0,-100.00,South,170,6.0,10.0,86,0.00,,,0.00,78.000000,,2013-06-22 22:02:00,
2013-06-22 22:23:00,66.0,60.0,-100.00,SE,142,6.0,10.0,82,0.00,,,0.00,236.000000,,2013-06-22 22:23:00,
2013-06-22 22:33:00,66.0,60.0,-100.00,SE,142,6.0,10.0,82,0.00,,,0.00,236.000000,,2013-06-22 22:33:00,
2013-06-22 22:43:00,66.0,60.0,-100.00,SE,142,6.0,10.0,82,0.00,,,0.00,236.000000,,2013-06-22 22:43:00,
2013-06-22 22:52:00,66.0,60.0,-100.00,SE,142,6.0,10.0,82,0.00,,,0.00,236.000000,,2013-06-22 22:52:00,
2013-06-22 23:01:00,66.0,60.0,-100.00,SE,142,6.0,10.0,82,0.00,,,0.00,236.000000,,2013-06-22 23:01:00,
2013-06-22 23:22:00,67.0,61.0,-100.00,East,82,3.0,8.0,82,0.00,,,0.00,176.000000,,2013-06-22 23:22:00,
2013-06-22 23:34:00,67.0,61.0,-100.00,East,82,3.0,8.0,82,0.00,,,0.00,176.000000,,2013-06-22 23:34:00,
2013-06-22 23:43:00,67.0,61.0,-100.00,East,82,3.0,8.0,82,0.00,,,0.00,176.000000,,2013-06-22 23:43:00,
2013-06-22 23:53:00,67.0,61.0,-100.00,East,82,3.0,8.0,82,0.00,,,0.00,176.000000,,2013-06-22 23:53:00,